#timestamp,LO_Frequency,Hit,StdDev 
1510340415.1,286046992.8,N
1510340435.9,286046994.3,N
1510340455.7,286046992.9,N
1510340475.5,286046992.3,N
1510340495.3,286046994.4,N
1510340515.2,286046992.9,N
1510340535.0,286046992.5,N
1510340535.9,286046992.5,N
1510340555.7,286046990.2,N
1510340575.6,286046989.4,N
1510340595.4,286046989.9,N
1510340615.2,286046991.4,N
1510340635.1,286046987.6,Y
1510340636.0,286046987.6,P
1510340655.8,286046990.9,N
1510340675.6,286046994.7,N
1510340695.5,286046990.4,Y
1510340715.3,286047001.1,P
1510340735.1,286046999.5,N
1510340755.9,286046998.3,N
1510340775.7,286046997.5,N
1510340795.5,286046997.6,N
1510340815.4,286046995.6,N
1510340835.2,286046995.9,N
1510340855.0,286046999.6,N
1510340855.9,286046999.6,N
1510340875.8,286046999.7,N
1510340895.6,286047000.6,N
1510340915.4,286047002.4,N
1510340935.3,286047003.7,N
1510340955.1,286047005.2,N
1510340956.0,286047005.2,N
1510340975.8,286047005.3,N
1510340995.7,286047005.7,N
1510341015.5,286047007.9,N
1510341035.3,286047009.9,N
1510341055.1,286047004.6,N
1510341075.9,286047005.3,N
1510341095.7,286047009.2,N
1510341115.5,286047010.5,N
1510341135.4,286047010.1,N
1510341155.2,286047009.3,N
1510341175.0,286047006.4,N
1510341175.9,286047006.4,N
1510341195.8,286047007.9,N
1510341215.6,286047007.2,N
1510341235.4,286047005.5,N
1510341255.3,286047005.0,N
1510341275.1,286047008.9,N
1510341276.0,286047008.9,N
1510341295.8,286047008.9,N
1510341315.7,286047005.9,N
1510341335.5,286047002.0,N
1510341355.3,286047004.8,N
1510341375.1,286047003.0,N
1510341395.9,286047002.8,N
1510341415.7,286046994.9,N
1510341435.5,286046998.0,N
1510341455.4,286046997.7,N
1510341475.2,286046997.0,N
1510341495.0,286046998.4,N
1510341495.9,286046998.4,N
1510341515.8,286047001.2,N
1510341535.6,286047002.2,N
1510341555.4,286047000.4,N
1510341575.3,286046999.4,N
1510341595.1,286046998.5,N
1510341596.0,286046998.5,N
1510341615.8,286047001.1,N
1510341635.7,286047002.8,N
1510341655.5,286047002.4,N
1510341675.3,286047003.5,N
1510341695.1,286047006.8,N
1510341715.9,286047008.4,N
1510341735.7,286047007.6,N
1510341755.5,286047006.5,N
1510341775.4,286047005.2,N
1510341795.2,286047007.5,N
1510341815.0,286047004.8,N
1510341815.9,286047004.8,N
1510341835.8,286047006.9,N
1510341855.6,286047009.4,N
1510341875.4,286047013.1,Y
1510341895.3,286047008.9,P
1510341915.1,286047009.5,N
1510341935.8,286047013.1,P
1510341955.7,286047015.4,Y
1510341975.5,286047007.2,P
1510341995.3,286047004.1,P
1510342015.2,286047000.5,N
1510342035.9,286046996.7,N
1510342055.7,286046996.2,N
1510342075.6,286046995.7,N
1510342095.4,286046995.7,N
1510342115.2,286046997.5,N
1510342135.1,286046995.2,N
1510342136.0,286046995.2,N
1510342155.8,286046993.5,N
1510342175.6,286046992.4,N
1510342195.4,286046992.2,N
1510342215.3,286046991.7,N
1510342235.1,286046995.2,N
1510342255.8,286046996.8,N
1510342275.7,286046999.3,N
1510342295.5,286046999.1,N
1510342315.3,286046997.8,N
1510342335.2,286046995.9,N
1510342355.9,286046993.4,N
1510342375.7,286046994.2,N
1510342395.6,286046992.3,N
1510342415.4,286046994.8,N
1510342435.2,286046993.4,N
1510342455.0,286046995.9,N
1510342456.0,286046995.9,N
1510342475.8,286046993.6,N
1510342495.6,286046994.7,N
1510342515.4,286046994.6,N
1510342535.3,286046988.7,Y
1510342555.1,286046996.1,P
1510342575.8,286046995.0,P
1510342595.7,286046996.7,P
1510342615.5,286046998.8,N
1510342635.3,286047002.7,N
1510342655.2,286047000.3,N
1510342675.9,286046998.1,N
1510342695.7,286047000.3,N
1510342715.6,286047000.8,N
1510342735.4,286046999.7,N
1510342755.2,286047002.4,N
1510342775.1,286047000.1,N
1510342776.0,286047000.1,N
1510342795.8,286047000.4,N
1510342815.6,286047002.4,N
1510342835.4,286046999.8,N
1510342855.3,286047002.2,N
1510342875.1,286047001.4,N
1510342895.8,286047002.7,N
1510342915.7,286047003.4,N
1510342935.5,286047003.2,N
1510342955.3,286047003.7,N
1510342975.2,286047003.3,N
1510342995.9,286047006.3,N
1510343015.7,286047006.2,N
1510343035.6,286047006.6,N
1510343055.4,286047008.9,N
1510343075.2,286047006.4,N
1510343095.0,286047008.0,N
1510343096.0,286047008.0,N
1510343115.8,286047008.7,N
1510343135.6,286047007.7,N
1510343155.4,286047008.5,N
1510343175.3,286047009.7,N
1510343195.1,286047008.4,N
1510343215.8,286047008.9,N
1510343235.7,286047013.8,Y
1510343255.5,286047009.9,P
1510343275.3,286047004.7,N
1510343295.2,286047005.8,N
1510343315.0,286047008.7,Y
1510343315.9,286047008.7,P
1510343335.7,286047000.8,N
1510343355.6,286047003.1,N
1510343375.4,286047005.6,N
1510343395.2,286047001.6,N
1510343415.1,286047003.0,N
1510343416.0,286047003.0,N
1510343435.8,286047003.3,N
1510343455.6,286047001.3,N
1510343475.5,286047001.1,N
1510343495.3,286047001.8,N
1510343515.1,286047005.7,N
1510343535.9,286047004.3,N
1510343555.7,286047001.3,N
1510343575.5,286047004.7,N
1510343595.4,286047006.8,Y
1510343615.2,286047006.8,P
1510343635.0,286047003.1,N
1510343635.9,286047003.1,N
1510343655.8,286047007.6,Y
1510343675.6,286046999.8,P
1510343695.4,286047003.6,N
1510343715.3,286047002.5,N
1510343735.1,286047000.3,N
1510343736.0,286047000.3,N
1510343755.8,286047003.8,N
1510343775.6,286047004.9,N
1510343795.5,286047004.1,N
1510343815.3,286047004.5,N
1510343835.1,286047007.5,Y
1510343855.9,286047006.0,P
1510343875.7,286047002.1,N
1510343895.5,286047001.3,N
1510343915.4,286047005.6,Y
1510343935.2,286046998.6,P
1510343955.0,286046999.1,N
1510343955.9,286046999.1,N
1510343975.8,286046995.6,N
1510343995.6,286046994.5,N
